Location: ?????
(31.8092°N, 35.2590°E)
Time: 20:14:11
(UTC+00:00)

Cosmos 1943 Rocket - Pass Details

Date: 20 June 2021
Orbit: 813 x 843 km, 71.0° (Epoch: 02 August)

Event Time Altitude Azimuth Distance (km) Brightness Sun altitude
Rises 21:41:26 0° 345° (NNW) 3,340 6.3 -34.8°
Reaches altitude 10° 21:43:54 10° 350° (N) 2,407 5.3 -34.7°
Enters shadow 21:47:34 39° 14° (NNE) 1,209 3.3 -34.7°
